{"data":{"norad_id":59639,"intl_designator":"2024-082J","name":"STARLINK-31807","alt_names":[],"object_type":"PAYLOAD","status":"ACTIVE","operator":null,"country":"US","launch_date":"2024-05-03","launch_site_code":"AFETR","launch_vehicle":null,"mission":null,"orbit_class":"UNKNOWN","rcs_meters":null,"size_class":null,"mass_kg":null,"dimensions":null,"purposes":["comms"],"wikipedia_slug":null,"has_3d_model":false,"image_url":null,"decayed_at":null,"tle_current":{"epoch":"2026-05-24T23:07:33.152160Z","epoch_age_seconds":84956,"freshness":"FRESH","line1":"1 59639U 24082J   26144.96357815 -.00000546  00000+0 -10336-4 0  9992","line2":"2 59639  43.0029  69.3491 0000787 266.5383  93.5379 15.27575571116479","mean_motion":15.27575571,"eccentricity":7.87e-5,"inclination_deg":43.0029,"raan_deg":69.3491,"arg_perigee_deg":266.5383,"mean_anomaly_deg":93.5379,"bstar":-1.0336e-5,"rev_number":11647,"period_min":94.267022027416,"perigee_km":482.52238170154,"apogee_km":483.6023344805,"semimajor_km":6861.199358091,"source":"CELESTRAK","updated_at":"2026-05-25T13:38:19.014434Z"}}}